Regional Weather Roundup
Issued by NWS Jackson, KY

Home | Current Version | Previous Version | Text Only | Print | Product List | Glossary Off
Versions: 1 2 3 4 5 6 7 8 9 10 11 12 13 14 15 16 17 18 19 20 21 22 23 24 25 26 27 28 29 30 31 32 33 34 35 36 37 38 39 40 41 42 43 44 45 46 47 48 49 50

000
ASUS43 KJKL 280311
RWRJKL

EAST KENTUCKY HOURLY WEATHER ROUNDUP
NATIONAL WEATHER SERVICE JACKSON KY
1000 PM EST TUE JAN 27 2015

NOTE: "FAIR" INDICATES FEW OR NO CLOUDS BELOW 12,000 FEET WITH
NO SIGNIFICANT WEATHER AND/OR OBSTRUCTIONS TO VISIBILITY.

* THESE REPORTS ARE NOT UNDER NWS QUALITY CONTROL AND MAY NOT
  REPORT WEATHER SUCH AS PRECIPITATION AND FOG.

KYZ079-080-083-085-087-088-110-112-115-119-120-280400
...EASTERN KENTUCKY...

CITY           SKY/WX    TMP DP  RH WIND       PRES   REMARKS
JACKSON        CLEAR     23  11  60 NE3       30.16R
LONDON         CLEAR     28  14  55 N5        30.17R WCI  23
SOMERSET*      CLEAR     28  21  74 N6        30.22R WCI  22
MONTICELLO*    CLOUDY    31  25  78 N8        30.23R WCI  24
MIDDLESBORO*   MOCLDY    30  22  71 N6        30.17R WCI  24
HARLAN APT*    CLEAR     28  14  54 W7        30.13R WCI  21
BLACK MTN*       N/A     12  10  92 NE1         N/A
PIKEVILLE APT* CLEAR     21  14  73 N5        30.14R WCI  15
BIG SANDY*     PTCLDY    22  15  72 N6        30.17R WCI  15
MOREHEAD APT*  PTCLDY    21  12  68 N8        30.23R WCI  12
$$

KYZ035-036-041-042-044-050-067-078-099-280400
...CENTRAL KENTUCKY...

CITY           SKY/WX    TMP DP  RH WIND       PRES   REMARKS
MT STERLING*     N/A     23  16  74 NE6       30.22R WCI  16
FLEMING/MASON* CLEAR     19  13  76 NE7       30.24R WCI  10
DANVILLE*      CLEAR     23  16  74 N6        30.21R WCI  16
RICHMOND*      CLEAR     25  14  63 N3        30.20R
LEXINGTON      CLEAR     23  13  65 N8        30.22R WCI  14
FRANKFORT      CLEAR     25  13  60 N6        30.22R WCI  18
$$

KYZ091>093-OHZ055-061-077-WVZ005-015-034-035-042-280400
...SOUTHERN OHIO/WEST VIRGINIA...

CITY           SKY/WX    TMP DP  RH WIND       PRES   REMARKS
COVINGTON      CLEAR     21  12  68 N10       30.23R WCI  10
COLUMBUS       CLEAR     14   9  80 W5        30.20S WCI   6
DAYTON         PTCLDY    11   9  92 W3        30.22S FOG
WILMINGTON     CLEAR     15   9  76 NW5       30.21R WCI   8
HUNTINGTON     CLOUDY    22  14  71 VRB7      30.20R WCI  13
CHARLESTON     FLURRIES  22  15  75 NW7       30.16R WCI  13
PINEVILLE*     CLOUDY    24  17  72 MISG      30.13S
BECKLEY        LGT SNOW  18  12  77 NW7       30.02R WCI   9
BLUEFIELD      CLOUDY    19  10  68 NW10G20   29.99R WCI   7
$$

VAZ002-007-008-TNZ017-027-036-066-071-280400
...SOUTHWEST VIRGINIA/EAST TENNESSEE...

CITY           SKY/WX    TMP DP  RH WIND       PRES   REMARKS
WISE*          CLEAR     23   5  46 NW8       30.05R WCI  14
JONESVILLE*    CLEAR     27  16  63 NW3       30.15R
ABINGDON*      PTCLDY    28  13  52 NW6       30.05R WCI  22
BRISTOL        CLEAR     27  19  72 W6        30.09R WCI  20
KNOXVILLE      CLOUDY    33  25  72 N6        30.16R WCI  28
OAK RIDGE      CLOUDY    34  25  69 NW5       30.18R WCI  30
CROSSVILLE     CLOUDY    31  23  72 VRB7G16   30.13R WCI  24
NASHVILLE      CLOUDY    35  31  85 N9        30.22R WCI  28
$$

...KEY TO REMARKS...
VSB - VISIBILITY IN MILES
WCI - WIND CHILL INDEX
HX  - HEAT INDEX

$$



USA.gov is the U.S. government's official web portal to all federal, state and local government web resources and services.